Regional Weather Roundup
Issued by NWS Goodland, KS

Home | Current Version | Previous Version | Text Only | Print | Product List | Glossary Off
Versions: 1 2 3 4 5 6 7 8 9 10 11 12 13 14 15 16 17 18 19 20 21 22 23 24 25 26 27 28 29 30 31 32 33 34 35 36 37 38 39 40 41 42 43 44 45 46 47 48 49 50

000
ASUS43 KGLD 261808
RWRGLD

GOODLAND FORECAST AREA HOURLY WEATHER ROUNDUP
NATIONAL WEATHER SERVICE GOODLAND KS
1200 PM MDT TUE MAY 26 2015

...OFFICIAL OBSERVATIONS...

CITY           SKY/WX    TMP DP  RH WIND       PRES   REMARKS
GOODLAND KS    MOSUNNY   68  52  56 N9G17     30.02S
HILL CITY KS   PTSUNNY   70  55  59 NW12      29.97S
IMPERIAL NEB   CLOUDY    65  51  60 N9        30.02S
MCCOOK NEB     PTSUNNY   68  51  54 NW17      29.98F
AKRON CO       MOSUNNY   65  48  54 VRB5      30.05S
BURLINGTON CO  MOSUNNY   66  48  52 W6        30.04S
LIMON CO       CLOUDY    61  44  53 VRB3      30.09S
$$

...UNOFFICIAL OBSERVATIONS...

CITY           SKY/WX    TMP DP  RH WIND       PRES   REMARKS
COLBY KS       PTSUNNY   70  55  60 NW10      30.02S
GOVE KS          N/A     70  32  24 MISG        N/A
LENORA KS        N/A     66  32  28 MISG        N/A
NORTON KS      PTSUNNY   70  46  43 W13       29.97
SHARON SPRINGS   N/A     68  54  61 MISG        N/A
KIT CARSON CO    N/A     68  49  49 MISG        N/A
$$


USA.gov is the U.S. government's official web portal to all federal, state and local government web resources and services.